Location: Toronto
(43.6672°N, 79.4170°W)
Time: 09:35:27
(UTC-05:00)

ISS - All Passes

Search period start: 22 January 2018 00:00
Search period end: 01 February 2018 00:00
Orbit: 402 x 407 km, 51.6° (Epoch: 22 January)

Date Brightness Start Highest point End Pass type
(mag) Time Alt. Az. Time Alt. Az. Time Alt. Az.
22 Jan - 01:03:44 10° NW 01:06:32 25° NNE 01:09:20 10° ENE night (unlit)
22 Jan - 02:40:01 10° WNW 02:43:19 85° SW 02:46:36 10° SE night (unlit)
22 Jan - 04:18:15 10° WSW 04:19:18 11° SW 04:20:21 10° SSW night (unlit)
22 Jan - 19:21:59 10° SSE 19:23:50 14° SE 19:25:41 10° E visible
22 Jan - 20:56:40 10° WSW 20:59:55 77° NNW 21:03:12 10° NE night (unlit)
22 Jan - 22:34:05 10° WNW 22:36:47 23° NNW 22:39:30 10° NE night (unlit)
23 Jan - 00:11:25 10° NW 00:14:01 21° N 00:16:38 10° ENE night (unlit)
23 Jan - 01:47:45 10° NW 01:51:00 56° NNE 01:54:13 10° ESE night (unlit)
23 Jan - 03:24:43 10° W 03:27:13 20° SW 03:29:44 10° S night (unlit)
23 Jan - 20:04:25 10° SW 20:07:38 59° SE 20:10:52 10° ENE visible
23 Jan - 21:41:23 10° W 21:44:17 29° NNW 21:47:12 10° NE night (unlit)
23 Jan - 23:18:58 10° NW 23:21:28 20° N 23:23:58 10° NE night (unlit)
24 Jan - 00:55:31 10° NW 00:58:35 37° NNE 01:01:40 10° E night (unlit)
24 Jan - 02:32:01 10° WNW 02:35:04 37° SW 02:38:07 10° SSE night (unlit)
24 Jan - 19:12:28 10° SSW 19:15:24 31° SE 19:18:21 10° ENE visible
24 Jan - 20:48:43 10° W 20:51:49 40° NNW 20:54:57 10° NE visible
24 Jan - 22:26:24 10° NW 22:28:54 20° N 22:31:25 10° NE night (unlit)
25 Jan - 00:03:15 10° NW 00:06:07 27° NNE 00:08:58 10° ENE night (unlit)
25 Jan - 01:39:34 10° WNW 01:42:49 69° SW 01:46:04 10° SE night (unlit)
25 Jan - 18:20:59 10° S 18:23:15 18° SE 18:25:30 10° E visible
25 Jan - 19:56:10 10° WSW 19:59:25 64° NNW 20:02:40 10° NE visible
25 Jan - 21:33:42 10° WNW 21:36:20 22° N 21:38:59 10° NE night (unlit)
25 Jan - 23:10:55 10° NW 23:13:35 22° N 23:16:14 10° ENE night (unlit)
26 Jan - 00:47:13 10° NW 00:50:29 68° NNE 00:53:44 10° ESE night (unlit)
26 Jan - 02:24:27 10° W 02:26:38 17° SW 02:28:48 10° S night (unlit)
26 Jan - 19:03:49 10° SW 19:07:04 73° SE 19:10:19 10° ENE visible
26 Jan - 20:40:58 10° WNW 20:43:47 26° NNW 20:46:38 10° NE visible
26 Jan - 22:18:29 10° NW 22:21:00 20° N 22:23:31 10° NE night (unlit)
26 Jan - 23:54:56 10° NW 23:58:04 42° NNE 00:01:12 10° E night (unlit)
27 Jan - 01:31:33 10° WNW 01:34:28 30° SW 01:37:21 10° SSE night (unlit)
27 Jan - 18:11:43 10° SSW 18:14:46 39° SE 18:17:51 10° ENE visible
27 Jan - 19:48:14 10° W 19:51:16 35° NNW 19:54:20 10° NE visible
27 Jan - 21:25:54 10° NW 21:28:24 20° N 21:30:54 10° NE night (unlit)
27 Jan - 23:02:38 10° NW 23:05:34 30° NNE 23:08:31 10° E night (unlit)
28 Jan - 00:38:59 10° WNW 00:42:12 55° SW 00:45:24 10° SE night (unlit)
28 Jan - 17:19:59 10° S 17:22:33 21° SE 17:25:07 10° E daylight
28 Jan - 18:55:36 10° WSW 18:58:48 54° NNW 19:02:01 10° NE visible
28 Jan - 20:33:12 10° WNW 20:35:47 21° N 20:38:22 10° NE visible
28 Jan - 22:10:17 10° NW 22:13:01 24° NNE 22:15:45 10° ENE night (unlit)
28 Jan - 23:46:34 10° WNW 23:49:51 81° NNE 23:53:08 10° ESE night (unlit)
29 Jan - 01:24:12 10° W 01:25:55 14° SW 01:27:37 10° SSW night (unlit)
29 Jan - 16:29:07 10° SSE 16:30:23 12° SE 16:31:40 10° ESE daylight
29 Jan - 18:03:08 10° WSW 18:06:23 89° SE 18:09:40 10° ENE visible
29 Jan - 19:40:25 10° WNW 19:43:11 24° NNW 19:45:57 10° NE visible
29 Jan - 21:17:52 10° NW 21:20:24 21° N 21:22:58 10° ENE night (unlit)
29 Jan - 22:54:14 10° NW 22:57:25 48° NNE 23:00:36 10° ESE night (unlit)
30 Jan - 00:31:01 10° W 00:33:43 24° SW 00:36:26 10° SSE night (unlit)
30 Jan - 17:10:53 10° SW 17:14:02 48° SE 17:17:13 10° ENE daylight
30 Jan - 18:47:38 10° W 18:50:37 31° NNW 18:53:36 10° NE visible
30 Jan - 20:25:17 10° NW 20:27:46 20° N 20:30:15 10° NE visible
30 Jan - 22:01:54 10° NW 22:04:54 33° NNE 22:07:55 10° E night (unlit)
30 Jan - 23:38:19 10° WNW 23:41:28 44° SW 23:44:35 10° SE night (unlit)
31 Jan - 16:18:58 10° SSW 16:21:45 26° SE 16:24:32 10° ENE daylight
31 Jan - 17:54:56 10° W 17:58:05 46° NNW 18:01:16 10° NE visible
31 Jan - 19:32:35 10° WNW 19:35:07 20° N 19:37:39 10° NE visible
31 Jan - 21:09:32 10° NW 21:12:20 25° NNE 21:15:07 10° ENE night (unlit)
31 Jan - 22:45:49 10° WNW 22:49:06 83° SSW 22:52:22 10° SE night (unlit)
